Regional Weather Roundup
Issued by NWS Northern Indiana

Home | Current Version | Previous Version | Text Only | Print | Product List | Glossary Off
Versions: 1 2 3 4 5 6 7 8 9 10 11 12 13 14 15 16 17 18 19 20 21 22 23 24 25 26 27 28 29 30 31 32 33 34 35 36 37 38 39 40 41 42 43 44 45 46 47 48 49 50

000
ASUS43 KIWX 301300
RWRIWX

KIWX WEATHER ROUNDUP
NATIONAL WEATHER SERVICE NORTHERN INDIANA
900 AM EDT THU OCT 30 2014

NOTE: "FAIR" INDICATES FEW OR NO CLOUDS BELOW 12,000 FEET WITH NO
SIGNIFICANT WEATHER AND/OR OBSTRUCTIONS TO VISIBILITY.

* THESE STATIONS ARE NOT UNDER NWS QUALITY CONTROL. THEY ALSO MAY NOT
  REPORT WEATHER SUCH AS PRECIPITATION OR FOG.

INZ001>027-301400-
NORTHERN INDIANA

CITY           SKY/WX    TMP DP  RH WIND       PRES   REMARKS
GARY*          MOCLDY    36  34  93 SW7       30.15S
SOUTH BEND     CLOUDY    44  36  73 SW7       30.15R
ELKHART*       CLOUDY    43  37  81 SW5       30.14S
GOSHEN         CLOUDY    43  37  79 SW6       30.14R
ANGOLA*        CLOUDY    43  39  87 CALM      30.14R
FORT WAYNE     CLOUDY    43  37  79 SW3       30.16R

$$
INZ028>050-301400-
CENTRAL INDIANA

CITY           SKY/WX    TMP DP  RH WIND       PRES   REMARKS
LAFAYETTE      CLEAR     31  31 100 CALM      30.18R
KOKOMO*        CLOUDY    43  36  75 CALM      30.17S
MUNCIE*        CLOUDY    43  37  79 W3        30.17R
INDIANAPOLIS   PTCLDY    37  31  78 CALM      30.17R

$$
MIZ043>046-050>051-056>058-064>065-071>073-077>080-301400-
SOUTHWEST LOWER MICHIGAN

CITY           SKY/WX    TMP DP  RH WIND       PRES   REMARKS
BATTLE CREEK   CLOUDY    43  36  76 S5        30.13R
BENTON HARBOR  CLOUDY    44  37  76 S5        30.13S
COLDWATER*     CLOUDY    43  41  91 CALM      30.13S
HILLSDALE*     CLOUDY    39  39 100 CALM      30.13R
HOLLAND        CLOUDY    46  39  76 CALM      30.13R
GRAND RAPIDS   CLOUDY    43  39  86 SE3       30.12S
KALAMAZOO      CLOUDY    44  38  79 S6        30.13R
STURGIS*       CLOUDY    43  39  87 CALM      30.13S
THREE RIVERS*  CLOUDY    44  39  84 CALM      30.13S

$$
OHZ001>008-015>018-024>025-301400-
NORTHWEST OHIO

CITY           SKY/WX    TMP DP  RH WIND       PRES   REMARKS
DEFIANCE       CLOUDY    39  37  92 CALM      30.16R
FINDLAY        CLEAR     39  36  89 CALM      30.14R
TOLEDO EXPRESS CLEAR     33  31  92 SW3       30.14R
TOLEDO METCALF CLEAR     35  33  92 CALM      30.16R
LIMA           MOCLDY    42  38  85 CALM      30.15R

$$
AND FOR LAKE MICHIGAN COASTAL AND OPEN LAKE BUOY OBSERVATIONS

STATION/POSITION TEMP    WIND        PRES    VSBY  WAVE
                 AIR SEA DIR/SP/G                  HT/PER
                 (F)     (DEG/KT/KT) (MB)    (MI)  (FT/S)
CALUMET HARBOR    38     230/  3/  4 1019.5R
MICHIGAN CITY     42     180/  9/ 10   N/A
SAINT JOSEPH      49     230/  6/ 11 1021.0R
SOUTH LAKE BUOY   47 53  240/ 10/ 10 1020.3R         1/ 5

$$
&&



USA.gov is the U.S. government's official web portal to all federal, state and local government web resources and services.